Regional Weather Roundup
Issued by NWS Goodland, KS

Home | Current Version | Previous Version | Text Only | Print | Product List | Glossary On
Versions: 1 2 3 4 5 6 7 8 9 10 11 12 13 14 15 16 17 18 19 20 21 22 23 24 25 26 27 28 29 30 31 32 33 34 35 36 37 38 39 40 41 42 43 44 45 46 47 48 49 50
000
ASUS43 KGLD 161608
RWRGLD

GOODLAND FORECAST AREA HOURLY WEATHER ROUNDUP
NATIONAL WEATHER SERVICE GOODLAND KS
1000 AM MDT WED APR 16 2014

...OFFICIAL OBSERVATIONS...

CITY           SKY/WX    TMP DP  RH WIND       PRES   REMARKS
GOODLAND KS    MOSUNNY   53  31  42 N35G48    29.82R
HILL CITY KS   MOSUNNY   60  37  42 NW24G36   29.76R
IMPERIAL NEB   MOSUNNY   52  34  50 NW31G40   29.80R
MCCOOK NEB     MOSUNNY   56  38  50 NW24G39   29.77R
AKRON CO       MOSUNNY   46  31  55 N33G40    29.88R
BURLINGTON CO  MOSUNNY   50  29  44 N35G45    29.84R
LIMON CO       SUNNY     48  25  40 N28       29.89R
$$

...UNOFFICIAL OBSERVATIONS...

CITY           SKY/WX    TMP DP  RH WIND       PRES   REMARKS
COLBY KS       SUNNY     55  37  50 NW30G38   29.79R
GOVE KS          N/A     57  32  39 N22G35      N/A
LENORA KS        N/A     54  32  43 W26         N/A
LEOTI KS         N/A     55  32  42 NW25        N/A
NORTON KS      SUNNY     54  37  54 W23       29.74R
OBERLIN KS     FAIR      54  36  50 NW39G47   29.74F
SHARON SPRINGS   N/A     54  31  42 N29G40      N/A
WAKEENEY KS      N/A     59  32  35 MISG        N/A
$$



USA.gov is the U.S. government's official web portal to all federal, state and local government web resources and services.